Location: Newark
(0.5300°S, 127.4800°E)
Time: 00:47:47
(UTC+00:00)

A-11 Canister half - Pass Details

Date: 20 September 2019
Orbit: 1514 x 1686 km, 47.2° (Epoch: 14 October)

Event Time Altitude Azimuth Distance (km) Brightness Sun altitude
Rises 22:30:08 0° 223° (SW) 4,862 11.2 16.7°
Reaches altitude 10° 22:33:19 10° 225° (SW) 3,852 10.7 17.5°
Maximum altitude 22:43:05 76° 309° (NW) 1,622 9.4 19.9°
Drops below altitude 10° 22:52:29 10° 34° (NE) 3,708 11.6 22.2°
Sets 22:55:29 0° 36° (NE) 4,674 12.1 23.0°
